Weather History for Kodiak, AK

Change the Weather History Date:

Friday, May 3, 2013

  Actual Average Record
Temperature  
Mean Temperature 42 °F 42 °F  
Max Temperature 44 °F 47 °F 61 °F (2003)
Min Temperature 40 °F 36 °F 20 °F (1949)
Degree Days  
Heating Degree Days 23 23  
Month to date heating degree days 70 70  
Since 1 July heating degree days 7940 7762  
Cooling Degree Days 0    
Month to date cooling degree days 0  
Year to date cooling degree days 0  
Moisture  
Dew Point 36 °F    
Average Humidity 0    
Maximum Humidity 0    
Minimum Humidity 0    
Precipitation  
Precipitation 0.00 in 0.18 in 1.17 in (2006)
Month to date precipitation 0.39 0.54  
Year to date precipitation 23.61 26.31  
Snow  
Snow 0.00 in 0.00 in 0.70 in (1964)
Month to date snowfall 0.0 0.1  
Snow Depth 0.00 in    
Sea Level Pressure  
Sea Level Pressure 29.88 in    
Wind  
Wind Speed 7 mph (North)    
Max Wind Speed 14 mph    
Max Gust Speed 16 mph    
Visibility 9 miles    
Events Rain , Snow    
T = Trace of Precipitation, MM = Missing Value Source: NWS Daily Summary

Daily Weather History Graph

Daily Weather History Graph

Search for Another Location

Airport:

Trip Planner

Search our weather history database for the weather conditions in past years. The results will help you decide how hot, cold, wet, or windy it might be!

Date:

Astronomy

May. 03, 2013 Rise Set
Actual Time 6:12 AM AKDT 10:02 PM AKDT
Civil Twilight 5:23 AM AKDT 10:51 PM AKDT
Nautical Twilight 4:12 AM AKDT 12:04 AM AKDT
Astronomical Twilight 2:39 AM AKDT 1:34 AM AKDT
Moon 4:02 AM AKDT (5/3) 2:54 PM AKDT (5/3)
Length of Visible Light 17h 27m
Length of Day
15h 49m
Waning Crescent, 35% of the Moon is Illuminated
May 3
Waning Crescent
May 9
New
May 17
First Quarter
May 24
Full
May 31
Last Quarter

Hourly Weather History & Observations

Time (AKDT) Temp. Windchill Dew Point Humidity Pressure Visibility Wind Dir Wind Speed Gust Speed Precip Events Conditions
12:53 AM 44.1 °F 40.8 °F 39.0 °F 82% 29.78 in 10.0 mi South 5.8 mph - N/A   Overcast
1:53 AM 44.1 °F 39.5 °F 39.0 °F 82% 29.79 in 10.0 mi SSW 8.1 mph - N/A   Overcast
2:53 AM 43.0 °F 38.8 °F 39.0 °F 86% 29.80 in 10.0 mi South 6.9 mph - N/A   Mostly Cloudy
3:53 AM 43.0 °F 41.3 °F 39.0 °F 86% 29.81 in 10.0 mi East 3.5 mph - N/A   Mostly Cloudy
4:53 AM 43.0 °F 38.8 °F 37.9 °F 82% 29.81 in 10.0 mi SW 6.9 mph - N/A   Mostly Cloudy
5:04 AM 42.8 °F 39.3 °F 37.4 °F 81% 29.80 in 10.0 mi SW 5.8 mph - N/A   Overcast
5:32 AM 42.8 °F 40.1 °F 37.4 °F 81% 29.81 in 10.0 mi NNW 4.6 mph - N/A   Overcast
5:53 AM 41.0 °F 38.0 °F 37.0 °F 86% 29.82 in 10.0 mi NW 4.6 mph - N/A   Overcast
6:53 AM 41.0 °F 38.0 °F 37.0 °F 86% 29.83 in 10.0 mi NW 4.6 mph - N/A   Overcast
7:53 AM 41.0 °F 35.8 °F 37.0 °F 86% 29.85 in 10.0 mi NW 8.1 mph - N/A   Overcast
8:53 AM 41.0 °F 34.7 °F 36.0 °F 82% 29.86 in 10.0 mi NW 10.4 mph - N/A   Overcast
9:53 AM 41.0 °F 35.2 °F 36.0 °F 82% 29.86 in 10.0 mi NW 9.2 mph - N/A   Overcast
10:23 AM 39.2 °F 32.5 °F 35.6 °F 87% 29.87 in 10.0 mi NW 10.4 mph - N/A   Overcast
10:53 AM 41.0 °F 35.2 °F 37.0 °F 86% 29.88 in 10.0 mi NW 9.2 mph - N/A   Overcast
11:53 AM 41.0 °F 35.2 °F 37.0 °F 86% 29.90 in 7.0 mi NW 9.2 mph - N/A   Overcast
12:53 PM 41.0 °F 34.3 °F 37.9 °F 89% 29.90 in 5.0 mi ENE 11.5 mph - N/A   Overcast
1:42 PM 41.0 °F 33.9 °F 37.4 °F 87% 29.91 in 4.0 mi ENE 12.7 mph - N/A   Overcast
1:53 PM 41.0 °F 33.9 °F 37.9 °F 89% 29.92 in 4.0 mi ENE 12.7 mph - N/A   Overcast
2:53 PM 41.0 °F 34.3 °F 37.0 °F 86% 29.92 in 10.0 mi ENE 11.5 mph - N/A   Overcast
3:53 PM 39.9 °F 33.4 °F 37.0 °F 89% 29.94 in 10.0 mi ENE 10.4 mph - N/A   Overcast
4:53 PM 39.9 °F 33.4 °F 37.0 °F 89% 29.93 in 7.0 mi NE 10.4 mph - 0.01 in Rain Light Rain
5:23 PM 39.2 °F 32.5 °F 37.4 °F 93% 29.92 in 9.0 mi ENE 10.4 mph - 0.01 in Rain Light Rain
5:53 PM 39.9 °F 32.5 °F 36.0 °F 86% 29.93 in 9.0 mi NE 12.7 mph - 0.01 in Rain Light Rain
6:53 PM 39.0 °F 32.3 °F 35.1 °F 86% 29.93 in 8.0 mi NE 10.4 mph - 0.02 in Rain Light Rain
7:53 PM 37.0 °F 29.8 °F 34.0 °F 89% 29.92 in 8.0 mi NE 10.4 mph - 0.01 in Rain Light Rain
8:00 PM 37.4 °F 30.3 °F 33.8 °F 87% 29.92 in 8.0 mi NE 10.4 mph - 0.01 in Rain Light Rain
8:02 PM 37.4 °F 30.8 °F 33.8 °F 87% 29.92 in 8.0 mi NE 9.2 mph - 0.01 in Rain Light Rain
8:53 PM 37.9 °F 34.4 °F 33.1 °F 83% 29.92 in 10.0 mi North 4.6 mph - 0.01 in Rain Light Rain
9:53 PM 37.0 °F 34.5 °F 33.1 °F 86% 29.92 in 10.0 mi North 3.5 mph - 0.00 in Rain Light Rain
10:53 PM 35.1 °F 30.1 °F 30.9 °F 85% 29.91 in 5.0 mi NW 5.8 mph - 0.01 in Rain Light Rain
11:53 PM 34.0 °F 28.8 °F 30.0 °F 85% 29.89 in 4.0 mi NW 5.8 mph - 0.00 in Rain , Snow Light Rain